Location: STAR School
(35.3054°N, 111.2976°W)
Time: 16:12:20
(UTC-07:00)

Vanguard 1 - Pass Details

Date: 30 October 2019
Orbit: 652 x 3831 km, 34.2° (Epoch: 11 November)

Event Time Altitude Azimuth Distance (km) Brightness Sun altitude
Rises 19:01:55 0° 273° (W) 3,404 14.5 -18.7°
Reaches altitude 10° 19:03:56 10° 272° (W) 2,658 13.5 -19.1°
Maximum altitude 19:10:15 81° 186° (S) 1,347 10.6 -20.4°
Enters shadow 19:16:08 30° 103° (ESE) 2,812 11.8 -21.6°
